TimeCDT,TemperatureF,Dew PointF,Humidity,Sea Level PressureIn,VisibilityMPH,Wind Direction,Wind SpeedMPH,Gust SpeedMPH,PrecipitationIn,Events,Conditions,WindDirDegrees,DateUTC
12:53 AM,57.0,48.9,74,29.88,10.0,SW,4.6,-,N/A,,Clear,220,2012-10-03 05:53:00
1:53 AM,57.9,48.0,70,29.90,10.0,SSW,5.8,-,N/A,,Partly Cloudy,200,2012-10-03 06:53:00
2:53 AM,57.0,48.9,74,29.90,5.0,SSW,6.9,-,N/A,,Haze,210,2012-10-03 07:53:00
3:53 AM,57.0,50.0,77,29.90,4.0,SSW,6.9,-,N/A,,Haze,210,2012-10-03 08:53:00
4:53 AM,55.9,51.1,84,29.92,6.0,SSW,5.8,-,N/A,,Haze,210,2012-10-03 09:53:00
5:53 AM,57.0,51.1,81,29.94,7.0,SSW,5.8,-,N/A,,Overcast,200,2012-10-03 10:53:00
6:53 AM,55.9,52.0,87,29.95,5.0,SW,6.9,-,N/A,,Overcast,220,2012-10-03 11:53:00
7:53 AM,57.0,52.0,83,29.96,4.0,WSW,3.5,-,N/A,,Haze,240,2012-10-03 12:53:00
8:53 AM,61.0,54.0,78,29.97,4.0,Calm,Calm,-,N/A,,Haze,0,2012-10-03 13:53:00
9:53 AM,63.0,54.0,72,29.99,4.0,North,-9999.0,-,N/A,,Haze,0,2012-10-03 14:53:00
10:53 AM,64.9,55.0,70,30.00,4.0,North,-9999.0,-,N/A,,Haze,0,2012-10-03 15:53:00
11:53 AM,68.0,55.0,63,29.99,7.0,SW,5.8,-,N/A,,Mostly Cloudy,220,2012-10-03 16:53:00
12:53 PM,68.0,54.0,61,29.98,10.0,SW,6.9,-,N/A,,Mostly Cloudy,220,2012-10-03 17:53:00
1:53 PM,71.1,54.0,55,29.96,10.0,SW,9.2,-,N/A,,Scattered Clouds,220,2012-10-03 18:53:00
2:53 PM,68.0,54.0,61,29.96,10.0,WSW,4.6,-,N/A,,Overcast,240,2012-10-03 19:53:00
3:53 PM,68.0,55.0,63,29.96,10.0,SSW,5.8,-,N/A,,Overcast,210,2012-10-03 20:53:00
4:53 PM,68.0,55.9,65,29.96,10.0,SSE,4.6,-,N/A,,Partly Cloudy,150,2012-10-03 21:53:00
5:53 PM,66.0,55.9,70,29.97,10.0,South,4.6,-,N/A,,Mostly Cloudy,170,2012-10-03 22:53:00
6:53 PM,66.0,55.0,68,29.97,10.0,SSE,5.8,-,N/A,,Partly Cloudy,150,2012-10-03 23:53:00
7:53 PM,62.6,53.6,72,30.00,10.0,SSE,6.9,-,N/A,,Clear,160,2012-10-04 00:53:00
8:53 PM,60.1,54.0,80,30.01,10.0,South,6.9,-,N/A,,Clear,170,2012-10-04 01:53:00
9:53 PM,59.0,54.0,83,30.03,10.0,South,6.9,-,N/A,,Clear,170,2012-10-04 02:53:00
10:53 PM,61.0,54.0,78,30.03,10.0,South,8.1,-,N/A,,Clear,170,2012-10-04 03:53:00
11:53 PM,62.1,54.0,75,30.03,10.0,South,12.7,-,N/A,,Partly Cloudy,190,2012-10-04 04:53:00